| Date | Time | Temp. (oF) | Dew Point (oF) | Rel. Hum. (%) | Press. (in.) | Wind Dir. | Wind Speed (mph) | Hourly Rainfall (in.) |
|
|---|---|---|---|---|---|---|---|---|---|
| 1 | 12/02 | 00:00 | 24 | 13 | 64 | 30.02 | S | 3 | 0.00 |
| 2 | 12/01 | 23:00 | 25 | 13 | 60 | 30.04 | S | 4 | 0.00 |
| 3 | 12/01 | 22:00 | 25 | 12 | 58 | 30.04 | SSW | 6 | 0.00 |
| 4 | 12/01 | 21:00 | 25 | 11 | 56 | 30.05 | SW | 5 | 0.00 |
| 5 | 12/01 | 20:00 | 25 | 11 | 55 | 30.05 | S | 4 | 0.00 |
| 6 | 12/01 | 19:00 | 26 | 10 | 52 | 30.03 | S | 4 | 0.00 |
| 7 | 12/01 | 18:00 | 27 | 10 | 49 | 30.00 | WNW | 4 | 0.00 |
| 8 | 12/01 | 17:00 | 28 | 9 | 45 | 29.98 | W | 4 | 0.00 |
| 9 | 12/01 | 16:00 | 30 | 9 | 41 | 29.95 | WNW | 12 | 0.00 |
| 10 | 12/01 | 15:00 | 32 | 10 | 41 | 29.94 | W | 8 | 0.00 |
| 11 | 12/01 | 14:00 | 33 | 12 | 42 | 29.92 | ESE | 7 | 0.00 |
| 12 | 12/01 | 13:00 | 32 | 12 | 44 | 29.92 | NW | 10 | 0.00 |
| 13 | 12/01 | 12:00 | 32 | 13 | 47 | 29.92 | SW | 11 | 0.00 |
| 14 | 12/01 | 11:00 | 31 | 12 | 45 | 29.91 | WSW | 10 | 0.00 |
| 15 | 12/01 | 10:00 | 30 | 13 | 49 | 29.91 | W | 14 | 0.00 |
| 16 | 12/01 | 09:00 | 29 | 12 | 50 | 29.89 | WSW | 13 | 0.00 |
| 17 | 12/01 | 08:00 | 28 | 13 | 53 | 29.87 | W | 8 | 0.00 |
| 18 | 12/01 | 07:00 | 27 | 13 | 56 | 29.83 | SW | 4 | 0.00 |
| 19 | 12/01 | 06:00 | 27 | 17 | 68 | 29.79 | SSW | 6 | 0.00 |
| 20 | 12/01 | 05:00 | 27 | 18 | 71 | 29.75 | W | 7 | 0.00 |
| 21 | 12/01 | 04:00 | 29 | 19 | 68 | 29.72 | SSW | 10 | 0.00 |
| 22 | 12/01 | 03:00 | 29 | 21 | 72 | 29.71 | WNW | 2 | 0.00 |
| 23 | 12/01 | 02:00 | 30 | 21 | 70 | 29.68 | WNW | 7 | 0.00 |
| 24 | 12/01 | 01:00 | 31 | 23 | 73 | 29.65 | W | 10 | 0.00 |